EN

Hourly Weather Bolshie Vorobevichi

Today, 21 October, Wednesday

Time Temperature Precipitation Wind Pressure Humidity
00:00 +4°C° 0 mm 3 mps 751 mmHg 83%
01:00 +5°C° 0 mm 4 mps 751 mmHg 81%
02:00 +5°C° 0 mm 4 mps 751 mmHg 80%
03:00 +5°C° 0 mm 4 mps 750 mmHg 81%
04:00 +5°C° 0 mm 5 mps 749 mmHg 81%
05:00 +5°C° 0 mm 5 mps 749 mmHg 82%
06:00 +5°C° 0.1 mm 5 mps 748 mmHg 83%
07:00 +6°C° 0.1 mm 5 mps 748 mmHg 84%
08:00 +6°C° 0.1 mm 5 mps 747 mmHg 85%
09:00 +6°C° 0.6 mm 5 mps 747 mmHg 86%
10:00 +5°C° 0.6 mm 4 mps 747 mmHg 88%
11:00 +5°C° 0.6 mm 4 mps 747 mmHg 89%
12:00 +6°C° 0 mm 4 mps 747 mmHg 86%
13:00 +7°C° 0 mm 4 mps 747 mmHg 83%
14:00 +8°C° 0 mm 4 mps 747 mmHg 80%
15:00 +8°C° 0 mm 3 mps 747 mmHg 82%
16:00 +8°C° 0 mm 3 mps 747 mmHg 85%
17:00 +8°C° 0 mm 2 mps 746 mmHg 87%
18:00 +8°C° 0 mm 2 mps 747 mmHg 88%
19:00 +8°C° 0 mm 2 mps 747 mmHg 90%
20:00 +7°C° 0 mm 2 mps 747 mmHg 92%
21:00 +8°C° 0 mm 2 mps 747 mmHg 91%
22:00 +8°C° 0 mm 2 mps 747 mmHg 90%
23:00 +8°C° 0 mm 3 mps 746 mmHg 89%

Tomorrow, 22 October, Thursday

Time Temperature Precipitation Wind Pressure Humidity
00:00 +8°C° 0.3 mm 3 mps 746 mmHg 89%
01:00 +8°C° 0.3 mm 3 mps 746 mmHg 89%
02:00 +8°C° 0.3 mm 3 mps 746 mmHg 88%
03:00 +8°C° 0.1 mm 3 mps 746 mmHg 87%
04:00 +7°C° 0.1 mm 4 mps 745 mmHg 87%
05:00 +7°C° 0.1 mm 4 mps 745 mmHg 86%
06:00 +7°C° 0 mm 4 mps 745 mmHg 86%
07:00 +7°C° 0 mm 5 mps 745 mmHg 86%
08:00 +7°C° 0 mm 5 mps 744 mmHg 85%
09:00 +9°C° 0 mm 5 mps 744 mmHg 81%
10:00 +10°C° 0 mm 6 mps 744 mmHg 77%
11:00 +11°C° 0 mm 6 mps 744 mmHg 73%
12:00 +13°C° 0 mm 6 mps 744 mmHg 72%
13:00 +14°C° 0 mm 7 mps 744 mmHg 71%
14:00 +15°C° 0 mm 7 mps 744 mmHg 70%
15:00 +14°C° 0 mm 6 mps 744 mmHg 73%
16:00 +14°C° 0 mm 5 mps 744 mmHg 77%
17:00 +13°C° 0 mm 4 mps 744 mmHg 80%
18:00 +12°C° 0 mm 4 mps 745 mmHg 83%
19:00 +12°C° 0 mm 4 mps 745 mmHg 86%
20:00 +11°C° 0 mm 4 mps 745 mmHg 89%
21:00 +11°C° 0 mm 4 mps 745 mmHg 90%
22:00 +11°C° 0 mm 3 mps 745 mmHg 92%
23:00 +11°C° 0 mm 3 mps 745 mmHg 93%

Day after tomorrow, 23 October, Friday

Time Temperature Precipitation Wind Pressure Humidity
00:00 +11°C° 0 mm 3 mps 746 mmHg 93%
01:00 +11°C° 0 mm 3 mps 746 mmHg 94%
02:00 +10°C° 0 mm 3 mps 746 mmHg 94%
03:00 +10°C° 0 mm 3 mps 745 mmHg 94%
04:00 +10°C° 0 mm 3 mps 745 mmHg 94%
05:00 +10°C° 0 mm 4 mps 745 mmHg 94%
06:00 +10°C° 0 mm 4 mps 744 mmHg 93%
07:00 +11°C° 0 mm 4 mps 744 mmHg 92%
08:00 +10°C° 0 mm 5 mps 744 mmHg 90%
09:00 +12°C° 0.1 mm 5 mps 743 mmHg 88%
10:00 +12°C° 0.1 mm 5 mps 743 mmHg 86%
11:00 +13°C° 0.1 mm 5 mps 743 mmHg 83%
12:00 +13°C° 0.5 mm 5 mps 743 mmHg 85%
13:00 +13°C° 0.5 mm 5 mps 743 mmHg 86%
14:00 +13°C° 0.5 mm 6 mps 743 mmHg 88%
15:00 +13°C° 0.2 mm 5 mps 743 mmHg 90%
16:00 +12°C° 0.2 mm 5 mps 742 mmHg 92%
17:00 +12°C° 0.2 mm 4 mps 742 mmHg 93%
18:00 +12°C° 0 mm 4 mps 743 mmHg 93%
19:00 +12°C° 0 mm 4 mps 743 mmHg 94%
20:00 +12°C° 0 mm 3 mps 743 mmHg 94%
21:00 +11°C° 0 mm 3 mps 743 mmHg 95%
22:00 +10°C° 0 mm 3 mps 743 mmHg 96%
23:00 +9°C° 0 mm 2 mps 744 mmHg 97%

24 October, Saturday

Time Temperature Precipitation Wind Pressure Humidity
00:00 +9°C° 0 mm 2 mps 744 mmHg 97%
01:00 +9°C° 0 mm 2 mps 744 mmHg 97%
02:00 +10°C° 0 mm 1 mps 744 mmHg 97%
03:00 +10°C° 0 mm 1 mps 743 mmHg 97%
04:00 +10°C° 0 mm 1 mps 743 mmHg 96%
05:00 +10°C° 0 mm 1 mps 743 mmHg 96%
06:00 +10°C° 0 mm 1 mps 743 mmHg 96%
07:00 +9°C° 0 mm 2 mps 743 mmHg 96%
08:00 +10°C° 0 mm 2 mps 742 mmHg 96%
09:00 +10°C° 0.4 mm 2 mps 742 mmHg 96%
10:00 +10°C° 0.4 mm 2 mps 741 mmHg 96%
11:00 +10°C° 0.4 mm 3 mps 741 mmHg 96%
12:00 +10°C° 2.3 mm 3 mps 740 mmHg 96%
13:00 +11°C° 2.3 mm 4 mps 740 mmHg 96%
14:00 +10°C° 2.3 mm 5 mps 739 mmHg 96%
15:00 +10°C° 1.5 mm 5 mps 739 mmHg 94%
16:00 +10°C° 1.5 mm 5 mps 738 mmHg 93%
17:00 +10°C° 1.5 mm 6 mps 738 mmHg 91%
18:00 +10°C° 0.1 mm 6 mps 738 mmHg 89%
19:00 +9°C° 0.1 mm 7 mps 738 mmHg 88%
20:00 +8°C° 0.1 mm 7 mps 738 mmHg 86%
21:00 +8°C° 0.4 mm 7 mps 738 mmHg 87%
22:00 +7°C° 0.4 mm 8 mps 739 mmHg 88%
23:00 +7°C° 0.4 mm 8 mps 739 mmHg 89%

25 October, Sunday

Time Temperature Precipitation Wind Pressure Humidity
00:00 +7°C° 0.7 mm 8 mps 739 mmHg 89%
01:00 +7°C° 0.7 mm 8 mps 739 mmHg 89%
02:00 +7°C° 0.7 mm 8 mps 739 mmHg 89%
03:00 +8°C° 0.8 mm 7 mps 740 mmHg 89%
04:00 +8°C° 0.8 mm 7 mps 740 mmHg 89%
05:00 +8°C° 0.8 mm 7 mps 741 mmHg 88%
06:00 +8°C° 0.1 mm 7 mps 742 mmHg 87%
07:00 +8°C° 0.1 mm 7 mps 742 mmHg 86%
08:00 +8°C° 0.1 mm 7 mps 743 mmHg 85%
09:00 +8°C° 0 mm 7 mps 743 mmHg 84%
10:00 +8°C° 0 mm 7 mps 744 mmHg 82%
11:00 +8°C° 0 mm 7 mps 745 mmHg 80%
12:00 +8°C° 0 mm 7 mps 745 mmHg 79%
13:00 +8°C° 0 mm 7 mps 745 mmHg 78%
14:00 +8°C° 0 mm 6 mps 746 mmHg 77%
15:00 +8°C° 0 mm 5 mps 746 mmHg 78%
16:00 +8°C° 0 mm 5 mps 747 mmHg 80%
17:00 +7°C° 0 mm 4 mps 747 mmHg 82%
18:00 +7°C° 0 mm 4 mps 748 mmHg 84%
19:00 +8°C° 0 mm 3 mps 748 mmHg 85%
20:00 +7°C° 0 mm 3 mps 748 mmHg 87%
21:00 +7°C° 0 mm 3 mps 749 mmHg 89%
22:00 +6°C° 0 mm 2 mps 749 mmHg 91%
23:00 +5°C° 0 mm 2 mps 749 mmHg 92%

26 October, Monday

Time Temperature Precipitation Wind Pressure Humidity
00:00 +5°C° 0 mm 2 mps 750 mmHg 92%
01:00 +5°C° 0 mm 2 mps 750 mmHg 92%
02:00 +6°C° 0 mm 1 mps 750 mmHg 92%
03:00 +5°C° 0 mm 1 mps 750 mmHg 92%
04:00 +5°C° 0 mm 1 mps 750 mmHg 92%
05:00 +4°C° 0 mm 0 mps 751 mmHg 93%
06:00 +4°C° 0 mm 0 mps 751 mmHg 92%
07:00 +4°C° 0 mm 0 mps 751 mmHg 92%
08:00 +4°C° 0 mm 0 mps 751 mmHg 92%
09:00 +6°C° 0 mm 0 mps 752 mmHg 86%
10:00 +8°C° 0 mm 1 mps 752 mmHg 80%
11:00 +10°C° 0 mm 1 mps 752 mmHg 74%
12:00 +10°C° 0 mm 1 mps 752 mmHg 72%
13:00 +10°C° 0 mm 2 mps 752 mmHg 70%
14:00 +10°C° 0 mm 2 mps 752 mmHg 68%
15:00 +9°C° 0 mm 2 mps 752 mmHg 73%
16:00 +8°C° 0 mm 2 mps 752 mmHg 79%
17:00 +7°C° 0 mm 2 mps 752 mmHg 84%
18:00 +7°C° 0 mm 2 mps 752 mmHg 87%
19:00 +6°C° 0 mm 2 mps 752 mmHg 89%
20:00 +6°C° 0 mm 2 mps 752 mmHg 91%
21:00 +5°C° 0 mm 2 mps 752 mmHg 91%
22:00 +4°C° 0 mm 3 mps 753 mmHg 92%
23:00 +4°C° 0 mm 3 mps 753 mmHg 93%

27 October, Tuesday

Time Temperature Precipitation Wind Pressure Humidity
00:00 +4°C° 0 mm 3 mps 753 mmHg 93%
01:00 +4°C° 0 mm 3 mps 753 mmHg 94%
02:00 +4°C° 0 mm 3 mps 753 mmHg 95%
03:00 +3°C° 0 mm 3 mps 753 mmHg 94%
04:00 +3°C° 0 mm 3 mps 753 mmHg 94%
05:00 +3°C° 0 mm 3 mps 753 mmHg 94%
06:00 +3°C° 0 mm 3 mps 753 mmHg 94%
07:00 +3°C° 0 mm 3 mps 754 mmHg 94%
08:00 +3°C° 0 mm 3 mps 754 mmHg 94%
09:00 +5°C° 0 mm 4 mps 754 mmHg 87%
10:00 +6°C° 0 mm 4 mps 754 mmHg 81%
11:00 +8°C° 0 mm 4 mps 754 mmHg 74%
12:00 +8°C° 0 mm 4 mps 754 mmHg 72%
13:00 +9°C° 0 mm 5 mps 754 mmHg 69%
14:00 +10°C° 0 mm 5 mps 754 mmHg 67%
15:00 +10°C° 0 mm 4 mps 754 mmHg 71%
16:00 +7°C° 0 mm 4 mps 753 mmHg 76%
17:00 +7°C° 0 mm 3 mps 753 mmHg 81%
18:00 +7°C° 0 mm 3 mps 754 mmHg 83%
19:00 +5°C° 0 mm 3 mps 754 mmHg 86%
20:00 +5°C° 0 mm 3 mps 754 mmHg 88%
21:00 +5°C° 0 mm 3 mps 754 mmHg 89%
22:00 +4°C° 0 mm 3 mps 754 mmHg 90%
23:00 +4°C° 0 mm 3 mps 755 mmHg 91%
Show more